GW6231 Weather Reports


Display with metric or nautical units.
time (UTC)temp
F
wind
direction
speed
MPH
gust
MPH
rain 1hr
in
rain 24hr
in
rain mn
in
humidity
%
barometer
mb
20260906152958 100 356 3.0 8.0 0.00 0.00 0.00 52 1006.2
20260906152459 109 270 2.0 5.0 0.00 0.00 0.00 57 1006.2
20260906151958 100 13 1.0 7.0 0.00 0.00 0.00 56 1006.2
20260906151458 98 34 2.0 8.0 0.00 0.00 0.00 55 1006.2
20260906150959 108 19 3.0 9.0 0.00 0.00 0.00 64 1006.3
20260906150458 96 27 1.0 9.0 0.00 0.00 0.00 58 1006.4
20260906145958 96 3 4.0 7.0 0.00 0.00 0.00 58 1006.2
20260906145459 103 319 5.0 7.0 0.00 0.00 0.00 58 1006.1
20260906144958 96 338 4.0 7.0 0.00 0.00 0.00 56 1006.3
20260906144458 96 360 2.0 7.0 0.00 0.00 0.00 58 1006.1
20260906143958 94 333 1.0 4.0 0.00 0.00 0.00 68 1006.2
20260906143458 94 246 4.0 4.0 0.00 0.00 0.00 71 1006.2
20260906142958 93 224 2.0 4.0 0.00 0.00 0.00 70 1006.2
20260906142458 93 238 4.0 4.0 0.00 0.00 0.00 71 1006.2
20260906141958 92 276 2.0 4.0 0.00 0.00 0.00 74 1006.3
20260906141458 93 318 3.0 4.0 0.00 0.00 0.00 74 1006.3
20260906140958 92 228 3.0 4.0 0.00 0.00 0.00 75 1006.3
20260906140458 90 257 3.0 4.0 0.00 0.00 0.00 74 1006.3
20260906135958 90 237 3.0 4.0 0.00 0.00 0.00 76 1006.3
20260906135459 92 303 3.0 4.0 0.00 0.00 0.00 80 1006.3
20260906134958 90 267 2.0 4.0 0.00 0.00 0.00 80 1006.3
20260906134458 89 277 2.0 4.0 0.00 0.00 0.00 82 1006.4
20260906133958 89 262 3.0 4.0 0.00 0.00 0.00 85 1006.4
20260906133458 87 257 3.0 4.0 0.00 0.00 0.00 85 1006.4
20260906132959 88 269 3.0 5.0 0.00 0.00 0.00 86 1006.3
20260906132458 91 266 4.0 5.0 0.00 0.00 0.00 86 1006.2
20260906131958 87 261 3.0 4.0 0.00 0.00 0.00 86 1006.1
20260906131459 88 254 2.0 3.0 0.00 0.00 0.00 85 1006.2
20260906130958 91 320 1.0 2.0 0.00 0.00 0.00 87 1006.2
20260906130458 87 233 1.0 2.0 0.00 0.00 0.00 86 1006.1
20260906125958 87 157 1.0 2.0 0.00 0.00 0.00 87 1006.1
20260906125458 102 155 2.0 2.0 0.00 0.00 0.00 97 1006.2
20260906124958 87 157 2.0 2.0 0.00 0.00 0.00 92 1006.1
20260906124458 90 166 1.0 2.0 0.00 0.00 0.00 96 1006.0
20260906123959 87 163 1.0 2.0 0.00 0.00 0.00 97 1006.0
20260906123458 87 192 1.0 3.0 0.00 0.00 0.00 98 1006.0
20260906122958 86 181 1.0 3.0 0.00 0.00 0.00 98 1005.9
20260906122458 85 160 2.0 3.0 0.00 0.00 0.00 99 1005.8
20260906121958 85 151 2.0 3.0 0.00 0.00 0.00 100 1005.7
20260906121459 85 142 2.0 2.0 0.00 0.00 0.00 100 1005.7
20260906120958 85 86 1.0 1.0 0.00 0.00 0.00 100 1005.6
20260906120458 84 13 0.0 1.0 0.00 0.00 0.00 100 1005.5
20260906115958 84 70 1.0 1.0 0.00 0.00 0.00 100 1005.5
20260906115458 84 148 0.0 2.0 0.00 0.00 0.00 100 1005.4
20260906114958 84 132 1.0 2.0 0.00 0.00 0.00 100 1005.3
20260906114458 84 230 1.0 2.0 0.00 0.00 0.00 100 1005.3
20260906113958 84 268 1.0 2.0 0.00 0.00 0.00 100 1005.2
20260906113458 84 308 2.0 4.0 0.00 0.00 0.00 100 1005.2
20260906112958 84 278 1.0 4.0 0.00 0.00 0.00 100 1005.1
20260906112458 84 181 3.0 4.0 0.00 0.00 0.00 100 1005.1
20260906111958 84 181 4.0 4.0 0.00 0.00 0.00 100 1005.0
20260906111458 84 162 2.0 2.0 0.00 0.00 0.00 100 1005.0
20260906110958 84 188 1.0 3.0 0.00 0.00 0.00 100 1005.0
20260906110458 84 192 2.0 4.0 0.00 0.00 0.00 100 1005.0
20260906105959 83 226 3.0 4.0 0.00 0.00 0.00 100 1004.8
20260906105458 84 239 2.0 3.0 0.00 0.00 0.00 99 1004.7
20260906104958 84 270 2.0 3.0 0.00 0.00 0.00 99 1004.7
20260906104458 84 262 3.0 3.0 0.00 0.00 0.00 99 1004.7
20260906103958 84 242 2.0 3.0 0.00 0.00 0.00 99 1005.0
20260906103458 84 250 2.0 2.0 0.00 0.00 0.00 100 1004.9
20260906102958 84 301 2.0 3.0 0.00 0.00 0.00 100 1004.6
20260906102458 84 341 2.0 3.0 0.00 0.00 0.00 99 1004.8
20260906101958 84 358 2.0 3.0 0.00 0.00 0.00 98 1004.7
20260906101458 84 10 2.0 2.0 0.00 0.00 0.00 99 1004.7
20260906100958 84 43 1.0 2.0 0.00 0.00 0.00 99 1004.8
20260906100458 84 160 0.0 4.0 0.00 0.00 0.00 98 1004.7
20260906095958 84 142 2.0 4.0 0.00 0.00 0.00 98 1004.8
20260906095459 84 119 3.0 3.0 0.00 0.00 0.00 99 1004.7
20260906094958 84 76 2.0 3.0 0.00 0.00 0.00 99 1004.7
20260906094458 84 60 1.0 4.0 0.00 0.00 0.00 99 1004.7
20260906093958 84 23 3.0 4.0 0.00 0.00 0.00 98 1004.7
20260906093458 84 10 1.0 2.0 0.00 0.00 0.00 96 1004.7
20260906092959 84 116 2.0 3.0 0.00 0.00 0.00 97 1004.7
20260906092458 85 72 2.0 3.0 0.00 0.00 0.00 98 1004.6
20260906091958 84 60 2.0 3.0 0.00 0.00 0.00 98 1004.6
20260906091458 84 52 1.0 3.0 0.00 0.00 0.00 97 1004.6
20260906090958 85 52 1.0 3.0 0.00 0.00 0.00 96 1004.6
20260906090459 85 125 2.0 4.0 0.00 0.00 0.00 95 1004.5
20260906085958 85 129 2.0 6.0 0.00 0.00 0.00 95 1004.4
20260906085458 86 149 4.0 6.0 0.00 0.00 0.00 96 1004.4
20260906084958 85 174 4.0 5.0 0.00 0.00 0.00 95 1004.2
20260906084458 85 162 3.0 5.0 0.00 0.00 0.00 95 1004.1
20260906083958 86 177 5.0 5.0 0.00 0.00 0.00 100 1004.1
20260906083458 86 115 2.0 2.0 0.00 0.00 0.00 95 1004.2
20260906082958 85 91 1.0 1.0 0.00 0.00 0.00 96 1004.1
20260906082458 85 128 1.0 1.0 0.00 0.00 0.00 95 1004.1
20260906081958 86 128 1.0 2.0 0.00 0.00 0.00 94 1004.0
20260906081458 86 269 1.0 2.0 0.00 0.00 0.00 94 1004.0
20260906080959 86 267 2.0 2.0 0.00 0.00 0.00 94 1003.9
20260906080459 86 272 2.0 2.0 0.00 0.00 0.00 94 1003.8
20260906075958 86 263 2.0 2.0 0.00 0.00 0.00 94 1003.8
20260906075458 86 234 2.0 2.0 0.00 0.00 0.00 94 1003.8
20260906074958 91 218 2.0 2.0 0.00 0.00 0.00 100 1003.9
20260906074459 86 246 2.0 2.0 0.00 0.00 0.00 94 1003.9
20260906073959 85 204 2.0 3.0 0.00 0.00 0.00 95 1003.9
20260906073458 85 195 2.0 3.0 0.00 0.00 0.00 96 1004.1
20260906072958 85 169 2.0 3.0 0.00 0.00 0.00 95 1004.1
20260906072458 85 44 0.0 3.0 0.00 0.00 0.00 95 1004.1
20260906071958 85 324 2.0 3.0 0.00 0.00 0.00 94 1004.1
20260906071458 85 330 3.0 3.0 0.00 0.00 0.00 94 1004.1
20260906070958 85 319 2.0 2.0 0.00 0.00 0.00 91 1004.1
20260906070458 85 298 1.0 2.0 0.00 0.00 0.00 91 1004.2
20260906065959 85 240 1.0 4.0 0.00 0.00 0.00 92 1004.2
20260906065459 85 213 2.0 4.0 0.00 0.00 0.00 92 1004.3
20260906064958 85 224 2.0 2.0 0.00 0.00 0.00 92 1004.3
20260906064458 86 183 1.0 2.0 0.00 0.00 0.00 92 1004.3
20260906063959 86 110 2.0 2.0 0.00 0.00 0.00 92 1004.3
20260906063458 86 4 0.0 3.0 0.00 0.00 0.00 90 1004.3
20260906062958 86 332 2.0 3.0 0.00 0.00 0.00 90 1004.4
20260906062458 86 313 2.0 3.0 0.00 0.00 0.00 91 1004.4
20260906061958 86 319 2.0 3.0 0.00 0.00 0.00 92 1004.5
20260906061458 86 333 1.0 2.0 0.00 0.00 0.00 91 1004.6
20260906060958 87 246 0.0 1.0 0.00 0.00 0.00 90 1004.6
20260906060459 87 257 1.0 1.0 0.00 0.00 0.00 90 1004.5
20260906055958 86 216 1.0 2.0 0.00 0.00 0.00 90 1004.5
20260906055459 87 28 1.0 2.0 0.00 0.00 0.00 90 1004.7
20260906054958 87 28 0.0 4.0 0.00 0.00 0.00 90 1004.6
20260906054458 87 169 2.0 7.0 0.00 0.00 0.00 92 1004.6
20260906053959 104 165 4.0 11.0 0.00 0.00 0.00 93 1004.6
20260906053458 87 169 6.0 11.0 0.00 0.00 0.00 94 1004.6
20260906052958 87 9 1.0 2.0 0.00 0.00 0.00 94 1004.4
20260906052459 86 45 1.0 1.0 0.00 0.00 0.00 100 1004.4
20260906051958 87 64 1.0 1.0 0.00 0.00 0.00 94 1004.4
20260906051458 86 56 1.0 2.0 0.00 0.00 0.00 92 1004.3
20260906050958 86 20 1.0 2.0 0.00 0.00 0.00 91 1004.3
20260906050458 87 24 1.0 2.0 0.00 0.00 0.00 91 1004.3
20260906045959 87 54 1.0 2.0 0.00 0.00 0.00 90 1004.2
20260906045458 87 31 1.0 2.0 0.00 0.00 0.00 91 1004.3
20260906044958 86 23 1.0 2.0 0.00 0.00 0.00 99 1004.3
20260906044458 86 27 1.0 1.0 0.00 0.00 0.00 90 1004.3
20260906043958 87 92 1.0 2.0 0.00 0.00 0.00 90 1004.2
20260906043458 87 104 1.0 2.0 0.00 0.00 0.00 89 1004.2
20260906042958 88 136 2.0 3.0 0.00 0.00 0.00 89 1004.1
20260906042458 87 148 2.0 3.0 0.00 0.00 0.00 89 1004.0
20260906041959 88 155 3.0 3.0 0.00 0.00 0.00 91 1004.0
20260906041459 106 147 3.0 3.0 0.00 0.00 0.00 88 1003.9
20260906040958 87 178 2.0 2.0 0.00 0.00 0.00 89 1003.9
20260906040459 87 220 2.0 2.0 0.00 0.00 0.00 89 1003.9
20260906035958 87 245 2.0 2.0 0.00 0.00 0.00 89 1004.0
20260906035458 87 252 2.0 2.0 0.00 0.00 0.00 90 1004.0
20260906034958 87 256 1.0 1.0 0.00 0.00 0.00 89 1004.0
20260906034458 87 309 1.0 1.0 0.00 0.00 0.00 88 1004.0
20260906033958 105 341 0.0 1.0 0.00 0.00 0.00 88 1004.0
20260906033458 87 1 0.0 1.0 0.00 0.00 0.00 88 1004.2
20260906032959 87 19 1.0 2.0 0.00 0.00 0.00 88 1004.3
20260906032458 88 14 1.0 2.0 0.00 0.00 0.00 87 1004.3
20260906031958 87 346 1.0 2.0 0.00 0.00 0.00 86 1004.4
20260906031459 87 3 1.0 2.0 0.00 0.00 0.00 87 1004.4
20260906030959 87 17 1.0 1.0 0.00 0.00 0.00 89 1004.4
20260906030458 87 84 1.0 1.0 0.00 0.00 0.00 89 1004.4
20260906025958 87 148 0.0 1.0 0.00 0.00 0.00 88 1004.4
20260906025458 87 75 0.0 1.0 0.00 0.00 0.00 88 1004.4
20260906024958 87 106 0.0 1.0 0.00 0.00 0.00 87 1004.5
20260906024458 88 162 1.0 1.0 0.00 0.00 0.00 87 1004.4
20260906023958 88 167 1.0 1.0 0.00 0.00 0.00 87 1004.3
20260906023458 88 131 1.0 1.0 0.00 0.00 0.00 86 1004.4
20260906022959 88 348 0.0 1.0 0.00 0.00 0.00 86 1004.4
20260906022458 88 234 1.0 1.0 0.00 0.00 0.00 84 1004.4
20260906021958 88 24 0.0 1.0 0.00 0.00 0.00 84 1004.4
20260906021459 89 193 1.0 1.0 0.00 0.00 0.00 84 1004.4
20260906020958 91 129 1.0 2.0 0.00 0.00 0.00 85 1004.3
20260906020458 91 234 1.0 2.0 0.00 0.00 0.00 83 1004.2
20260906015958 90 280 1.0 1.0 0.00 0.00 0.00 85 1004.2
20260906015459 100 270 1.0 2.0 0.00 0.00 0.00 80 1004.0
20260906014958 89 276 1.0 3.0 0.00 0.00 0.00 81 1004.0
20260906014458 88 320 2.0 3.0 0.00 0.00 0.00 81 1003.9
20260906013958 89 341 2.0 2.0 0.00 0.00 0.00 82 1003.9
20260906013458 89 324 1.0 1.0 0.00 0.00 0.00 76 1003.8
20260906012958 89 343 1.0 1.0 0.00 0.00 0.00 77 1003.8
20260906012458 89 95 0.0 1.0 0.00 0.00 0.00 75 1003.8
20260906011958 90 224 0.0 1.0 0.00 0.00 0.00 74 1003.7
20260906011458 90 201 1.0 2.0 0.00 0.00 0.00 73 1003.7
20260906010958 90 198 1.0 3.0 0.00 0.00 0.00 74 1003.6
20260906010458 91 184 2.0 3.0 0.00 0.00 0.00 72 1003.4
20260906005958 91 171 2.0 3.0 0.00 0.00 0.00 71 1003.4
20260906005458 91 170 3.0 3.0 0.00 0.00 0.00 71 1003.2
20260906004958 94 175 2.0 2.0 0.00 0.00 0.00 69 1003.3
20260906004458 93 189 2.0 2.0 0.00 0.00 0.00 70 1003.3
20260906003958 93 213 2.0 2.0 0.00 0.00 0.00 73 1003.3
20260906003458 94 309 1.0 3.0 0.00 0.00 0.00 67 1003.3
20260906002958 94 330 1.0 3.0 0.00 0.00 0.00 66 1003.6
20260906002459 95 140 1.0 1.0 0.00 0.00 0.00 61 1003.3
20260906001958 96 181 1.0 2.0 0.00 0.00 0.00 59 1003.3
20260906001458 96 105 1.0 2.0 0.00 0.00 0.00 59 1003.3
20260906000958 96 272 1.0 3.0 0.00 0.00 0.00 59 1003.3
20260906000458 97 180 2.0 3.0 0.00 0.00 0.00 58 1003.3
20260905235958 98 169 2.0 3.0 0.00 0.00 0.00 56 1003.4
20260905235458 98 159 2.0 3.0 0.00 0.00 0.00 52 1003.3
20260905234958 98 163 2.0 4.0 0.00 0.00 0.00 51 1003.4
20260905234458 98 124 2.0 4.0 0.00 0.00 0.00 52 1003.5
20260905233958 98 135 4.0 4.0 0.00 0.00 0.00 50 1003.4
20260905233458 98 140 3.0 4.0 0.00 0.00 0.00 50 1003.4
20260905232958 98 160 2.0 4.0 0.00 0.00 0.00 50 1003.4
20260905232458 98 137 2.0 4.0 0.00 0.00 0.00 49 1003.4
20260905231958 98 155 3.0 5.0 0.00 0.00 0.00 49 1003.4
20260905231459 98 142 4.0 6.0 0.00 0.00 0.00 50 1003.4
20260905230958 98 133 3.0 6.0 0.00 0.00 0.00 50 1003.4
20260905230458 98 101 5.0 6.0 0.00 0.00 0.00 48 1003.3
20260905225958 98 153 4.0 6.0 0.00 0.00 0.00 48 1003.3
20260905225458 98 145 4.0 8.0 0.00 0.00 0.00 47 1003.3
20260905224958 98 181 4.0 9.0 0.00 0.00 0.00 47 1003.3
20260905224458 97 177 6.0 9.0 0.00 0.00 0.00 48 1003.3
20260905223958 97 180 7.0 8.0 0.00 0.00 0.00 48 1003.3
20260905223458 97 152 7.0 8.0 0.00 0.00 0.00 48 1003.3
20260905222958 96 140 4.0 7.0 0.00 0.00 0.00 48 1003.2
20260905222458 95 119 3.0 7.0 0.00 0.00 0.00 50 1003.3
20260905221958 94 159 5.0 6.0 0.00 0.00 0.00 51 1003.5
20260905221458 93 138 3.0 6.0 0.00 0.00 0.00 56 1003.6
20260905220958 92 120 3.0 6.0 0.00 0.00 0.00 58 1003.7
20260905220458 92 188 6.0 9.0 0.00 0.00 0.00 61 1003.9
20260905215958 91 144 5.0 11.0 0.00 0.00 0.00 61 1003.9
20260905215458 91 156 9.0 17.0 0.00 0.00 0.00 60 1004.0
20260905214958 92 127 5.0 17.0 0.00 0.00 0.00 58 1004.0
20260905214458 92 138 10.0 22.0 0.00 0.00 0.00 54 1004.0
20260905213958 93 126 6.0 22.0 0.00 0.00 0.00 52 1003.9
20260905213458 94 113 12.0 21.0 0.00 0.00 0.00 48 1003.9
20260905212958 95 95 9.0 29.0 0.00 0.00 0.00 47 1004.0
20260905212458 96 128 11.0 29.0 0.00 0.00 0.00 46 1003.9
20260905211958 98 108 14.0 29.0 0.00 0.00 0.00 42 1003.8
20260905211459 101 21 20.0 20.0 0.00 0.00 0.00 39 1003.6
20260905210958 100 37 3.0 8.0 0.00 0.00 0.00 36 1003.4
20260905210458 100 17 1.0 7.0 0.00 0.00 0.00 36 1003.4
20260905205958 100 360 3.0 10.0 0.00 0.00 0.00 38 1003.4
20260905205458 101 27 7.0 10.0 0.00 0.00 0.00 36 1003.4
20260905204958 102 29 7.0 13.0 0.00 0.00 0.00 35 1003.4
20260905204458 103 36 8.0 13.0 0.00 0.00 0.00 34 1003.5
20260905203958 102 62 5.0 7.0 0.00 0.00 0.00 35 1003.5
20260905203459 102 323 2.0 8.0 0.00 0.00 0.00 34 1003.6
20260905202958 105 338 7.0 9.0 0.00 0.00 0.00 35 1003.8
20260905202458 102 27 6.0 9.0 0.00 0.00 0.00 34 1003.9
20260905201958 102 288 6.0 9.0 0.00 0.00 0.00 36 1003.9
20260905201458 102 99 5.0 9.0 0.00 0.00 0.00 34 1004.0
20260905200958 101 14 5.0 11.0 0.00 0.00 0.00 35 1004.1
20260905200458 101 14 7.0 11.0 0.00 0.00 0.00 36 1004.2
20260905195958 102 54 8.0 12.0 0.00 0.00 0.00 35 1004.3
20260905195458 103 30 2.0 12.0 0.00 0.00 0.00 35 1004.5
20260905194958 102 51 6.0 11.0 0.00 0.00 0.00 37 1004.6
20260905194458 102 158 4.0 10.0 0.00 0.00 0.00 34 1004.6
20260905193958 102 78 6.0 10.0 0.00 0.00 0.00 34 1004.8
20260905193458 102 67 3.0 9.0 0.00 0.00 0.00 34 1004.7
20260905192959 102 49 3.0 9.0 0.00 0.00 0.00 34 1004.9
20260905192458 103 80 7.0 8.0 0.00 0.00 0.00 33 1004.9
20260905191958 105 189 2.0 6.0 0.00 0.00 0.00 41 1004.9
20260905191458 103 277 1.0 8.0 0.00 0.00 0.00 36 1005.0
20260905190958 104 327 3.0 8.0 0.00 0.00 0.00 39 1005.0
20260905190458 102 86 8.0 10.0 0.00 0.00 0.00 37 1005.1
20260905185958 101 339 5.0 12.0 0.00 0.00 0.00 37 1005.1
20260905185458 102 346 6.0 12.0 0.00 0.00 0.00 37 1005.2
20260905184958 103 297 5.0 10.0 0.00 0.00 0.00 41 1005.3
20260905184458 101 105 1.0 15.0 0.00 0.00 0.00 39 1005.4
20260905183958 102 359 4.0 15.0 0.00 0.00 0.00 38 1005.5
20260905183458 101 337 4.0 16.0 0.00 0.00 0.00 38 1005.6
20260905182958 101 291 6.0 16.0 0.00 0.00 0.00 38 1005.6
20260905182458 102 1 3.0 11.0 0.00 0.00 0.00 37 1005.7
20260905181958 103 7 5.0 9.0 0.00 0.00 0.00 37 1005.7
20260905181458 102 44 3.0 11.0 0.00 0.00 0.00 36 1005.7
20260905180958 104 66 1.0 11.0 0.00 0.00 0.00 39 1005.8
20260905180458 101 265 7.0 9.0 0.00 0.00 0.00 38 1005.9
20260905175958 101 43 5.0 9.0 0.00 0.00 0.00 40 1006.1
20260905175459 100 43 4.0 9.0 0.00 0.00 0.00 38 1006.1
20260905174958 100 26 4.0 10.0 0.00 0.00 0.00 41 1006.1
20260905174459 99 339 2.0 10.0 0.00 0.00 0.00 41 1006.1
20260905173958 99 299 6.0 9.0 0.00 0.00 0.00 42 1006.2
20260905173458 99 320 3.0 9.0 0.00 0.00 0.00 46 1006.4
20260905172958 98 287 4.0 10.0 0.00 0.00 0.00 44 1006.1
20260905172458 99 261 4.0 11.0 0.00 0.00 0.00 42 1006.3
20260905171958 99 317 8.0 11.0 0.00 0.00 0.00 39 1006.4
20260905171458 98 275 4.0 8.0 0.00 0.00 0.00 43 1006.4
20260905170958 98 331 7.0 8.0 0.00 0.00 0.00 43 1006.5
20260905170458 98 277 2.0 9.0 0.00 0.00 0.00 47 1006.6
20260905165958 99 278 6.0 10.0 0.00 0.00 0.00 42 1006.6
20260905165459 99 293 8.0 10.0 0.00 0.00 0.00 42 1006.7
20260905164958 99 334 10.0 10.0 0.00 0.00 0.00 44 1006.7
20260905164459 99 271 2.0 7.0 0.00 0.00 0.00 44 1006.7
20260905163958 98 344 3.0 9.0 0.00 0.00 0.00 43 1006.8
20260905163458 98 333 3.0 9.0 0.00 0.00 0.00 43 1006.8
20260905162958 98 356 5.0 12.0 0.00 0.00 0.00 43 1006.9
20260905162459 98 254 4.0 12.0 0.00 0.00 0.00 45 1006.9
20260905161958 112 311 6.0 10.0 0.00 0.00 0.00 57 1007.0
20260905161459 100 34 1.0 10.0 0.00 0.00 0.00 48 1007.0
20260905160958 100 14 7.0 9.0 0.00 0.00 0.00 49 1007.0
20260905160458 111 11 5.0 8.0 0.00 0.00 0.00 53 1007.0
20260905155958 99 291 4.0 8.0 0.00 0.00 0.00 50 1007.0
20260905155459 98 312 6.0 9.0 0.00 0.00 0.00 50 1007.3
20260905154958 102 289 6.0 9.0 0.00 0.00 0.00 56 1007.2
20260905154458 97 317 6.0 10.0 0.00 0.00 0.00 53 1007.1
20260905153958 97 344 3.0 10.0 0.00 0.00 0.00 53 1007.0
20260905153458 102 336 5.0 10.0 0.00 0.00 0.00 55 1007.1